Hourly Data Report for October 31, 2015

All times are specified in Local Standard Time (LST). Add 1 hour to adjust for Daylight Saving Time where and when it is observed.

IQALUIT CLIMATE
NUNAVUT

63°44'50.000" N
68°32'40.000" W
33.50 m
2402592
71321
XFB

Download Data

Hourly Data (October 2015)
Hourly Data Report for October 31, 2015
Temp Definition
°C
Dew Point Temp Definition
°C
Rel Hum Definition
%
Wind Dir Definition
10's deg

Wind Spd Definition
km/h
Visibility Definition
km
Stn Press Definition
kPa
Hmdx Definition


Wind Chill Definition


Weather Definition


TIME
00:00 -6.1 -10.2 73 1 17   99.85   -12 LegendNANA
01:00 -6.9 -9.7 80 33 14   99.91   -13 LegendNANA
02:00 -7.8 -9.6 87 33 22   99.97   -15 LegendNANA
03:00 -8.1 -9.9 87 33 23   100.04   -16 LegendNANA
04:00 -9.7 -12.3 81 33 28   100.10   -19 LegendNANA
05:00 -11.1 -14.2 78 33 32   100.16   -21 LegendNANA
06:00 -10.7 -14.0 77 33 26   100.25   -20 LegendNANA
07:00 -11.4 -14.2 80 33 31   100.30   -21 LegendNANA
08:00 -11.5 -14.7 77 34 28   100.36   -21 LegendNANA
09:00 -11.7 -14.2 82 33 28   100.42   -21 LegendNANA
10:00 -11.6 -14.5 79 33 29   100.47   -21 LegendNANA
11:00 -11.9 -15.2 76 34 22   100.52   -21 LegendNANA
12:00 -11.6 -14.4 80 34 28   100.55   -21 LegendNANA
13:00 -12.6 -15.9 76 34 30   100.63   -23 LegendNANA
14:00 -13.8 -17.1 76 33 27   100.71   -24 LegendNANA
15:00 -14.8 -18.3 75 34 28   100.80   -25 LegendNANA
16:00 -15.8 -19.1 76 32 20   100.86   -25 LegendNANA
17:00 -14.6 -17.7 77 34 24   100.92   -24 LegendNANA
18:00 -15.7 -18.9 76 33 12   101.00   -23 LegendNANA
19:00 -15.6 -18.5 78 35 9   101.02   -22 LegendNANA
20:00 -14.8 -18.1 76 34 22   101.01   -24 LegendNANA
21:00 -14.4 -18.0 74 36 27   101.04   -25 LegendNANA
22:00 -14.2 -17.7 75 35 30   101.08   -25 LegendNANA
23:00 -16.0 -19.8 73 32 12   101.10   -23 LegendNANA

Notes on Data Quality.

Legend

  • E = Estimated
  • M = Missing
  • NA = Not Available
  • ‡ = Partner data that is not subject to review by the National Climate Archives
Date modified: